EW7736 Weather Reports


Display with metric or nautical units.
time (UTC)temp
F
wind
direction
speed
MPH
gust
MPH
rain 1hr
in
rain 24hr
in
rain mn
in
humidity
%
barometer
mb
20260506204008 53 116 1.0 4.0 0.00 0.29 0.28 9 1010.3
20260506202958 53 127 0.0 4.0 0.00 0.29 0.28 3 1010.2
20260506202015 53 129 1.0 6.0 0.00 0.29 0.28 1 1010.1
20260506201034 53 113 2.0 6.0 0.00 0.29 0.28 6 1010.1
20260506200007 54 117 1.0 4.0 0.00 0.29 0.28 1 1010.0
20260506193904 53 119 1.0 5.0 0.00 0.29 0.28 1 1010.1
20260506191750 53 127 0.0 4.0 0.00 0.29 0.28 1 1010.1
20260506182346 52 122 1.0 4.0 0.00 0.29 0.28 1 1010.0
20260506181332 52 105 1.0 4.0 0.00 0.29 0.28 1 1010.1
20260506180301 52 184 1.0 6.0 0.00 0.29 0.28 1 1010.0
20260506175233 51 146 1.0 6.0 0.00 0.29 0.28 1 1009.9
20260506174243 51 108 1.0 6.0 0.00 0.29 0.28 1 1009.8
20260506173254 51 117 1.0 5.0 0.00 0.29 0.28 1 1009.8
20260506172315 51 106 1.0 5.0 0.00 0.29 0.28 1 1009.8
20260506171312 51 130 2.0 8.0 0.00 0.29 0.28 1 1009.7
20260506170240 51 110 1.0 8.0 0.00 0.29 0.28 1 1009.8
20260506165213 51 112 1.0 7.0 0.00 0.29 0.28 1 1009.9
20260506164233 51 114 2.0 5.0 0.00 0.29 0.28 1 1009.7
20260506163158 51 110 2.0 6.0 0.00 0.29 0.28 1 1009.6
20260506162128 51 113 1.0 6.0 0.00 0.29 0.28 1 1009.3
20260506161123 51 125 1.0 4.0 0.00 0.29 0.28 1 1009.0
20260506160131 50 125 1.0 5.0 0.00 0.29 0.28 1 1008.9
20260506154031 50 125 0.0 3.0 0.00 0.29 0.28 1 1008.9
20260506153002 50 121 0.0 3.0 0.00 0.29 0.28 1 1008.7
20260506152017 50 113 1.0 5.0 0.00 0.29 0.28 1 1008.6
20260506151029 50 127 1.0 5.0 0.00 0.29 0.28 1 1008.6
20260506150026 50 120 1.0 5.0 0.00 0.29 0.28 1 1008.4
20260506145010 50 113 1.0 7.0 0.00 0.27 0.27 1 1008.2
20260506144013 49 129 2.0 7.0 0.00 0.27 0.27 1 1007.8
20260506142953 50 127 2.0 5.0 0.00 0.27 0.27 1 1007.7
20260506141947 50 122 4.0 10.0 0.04 0.27 0.27 1 1007.7
20260506140932 51 122 3.0 11.0 0.06 0.27 0.27 1 1007.5
20260506135943 53 127 4.0 11.0 0.15 0.26 0.27 1 1007.2
20260506134922 57 119 3.0 10.0 0.00 0.24 0.25 1 1006.6
20260506133918 58 46 2.0 8.0 0.00 0.24 0.25 1 1006.2
20260506132909 58 39 2.0 8.0 0.00 0.24 0.25 1 1006.2
20260506131907 57 65 2.0 6.0 0.00 0.24 0.25 1 1006.1
20260506130834 57 51 2.0 6.0 0.00 0.24 0.25 1 1006.0
20260506125800 57 44 2.0 7.0 0.00 0.24 0.25 1 1006.0
20260506124820 57 43 2.0 7.0 0.00 0.24 0.25 1 1006.2
20260506123819 57 49 2.0 9.0 0.00 0.24 0.25 1 1006.0
20260506121653 57 30 2.0 6.0 0.04 0.24 0.25 1 1006.2
20260506120619 57 35 2.0 8.0 0.08 0.24 0.25 1 1006.3
20260506115557 57 43 3.0 8.0 0.00 0.23 0.24 1 1006.3
20260506114534 57 46 2.0 10.0 0.00 0.23 0.23 1 1006.1
20260506113530 57 49 3.0 10.0 0.00 0.23 0.23 1 1006.0
20260506112508 57 44 1.0 6.0 0.00 0.23 0.23 1 1006.0
20260506110344 57 39 0.0 4.0 0.00 0.23 0.23 1 1005.9
20260506105347 57 43 1.0 4.0 0.05 0.23 0.23 1 1006.2
20260506104326 56 49 0.0 3.0 0.04 0.21 0.21 1 1006.2
20260506103305 56 44 0.0 4.0 0.04 0.21 0.21 1 1006.2
20260506102309 56 41 1.0 3.0 0.09 0.21 0.21 1 1006.1
20260506094924 56 49 1.0 6.0 0.00 0.14 0.15 1 1006.1
20260506093928 56 51 1.0 4.0 0.00 0.14 0.15 1 1006.0
20260506092910 56 43 1.0 6.0 0.00 0.14 0.15 1 1006.1
20260506091916 56 46 1.0 6.0 0.05 0.13 0.13 1 1006.3
20260506090847 57 42 1.0 6.0 0.05 0.13 0.13 1 1006.4
20260506085911 57 38 3.0 9.0 0.08 0.13 0.13 1 1006.5
20260506084901 56 53 2.0 9.0 0.05 0.10 0.12 1 1006.6
20260506083833 56 44 0.0 1.0 0.05 0.09 0.10 1 1006.5
20260506082828 56 44 0.0 0.0 0.04 0.09 0.10 1 1006.3
20260506080649 56 44 0.0 0.0 0.08 0.08 0.08 1 1006.4
20260506073517 56 44 0.0 0.0 0.00 0.06 0.06 1 1006.2
20260506072507 56 44 0.0 0.0 0.00 0.04 0.06 1 1006.3
20260506071502 56 44 0.0 0.0 0.00 0.04 0.05 1 1006.6
20260506070505 57 44 0.0 0.0 0.05 0.04 0.05 1 1006.7
20260506062440 57 44 0.0 0.0 0.00 0.01 0.01 1 1007.4
20260506061444 57 44 0.0 0.0 0.00 0.01 0.01 1 1007.5
20260506060451 57 44 0.0 0.0 0.00 0.01 0.01 1 1007.8
20260506050235 60 105 2.0 8.0 0.00 0.00 0.00 55 1008.2
20260506044227 62 96 3.0 12.0 0.00 0.00 0.00 64 1008.3
20260506043211 63 91 3.0 12.0 0.00 0.00 0.00 64 1008.3
20260506042152 65 102 4.0 10.0 0.00 0.00 0.00 59 1008.4
20260506041149 67 91 2.0 7.0 0.00 0.00 0.00 53 1008.1
20260506040208 67 104 1.0 3.0 0.00 0.00 0.00 52 1007.8
20260506035214 67 56 1.0 5.0 0.00 0.00 0.00 52 1007.6
20260506033022 67 65 3.0 7.0 0.00 0.00 0.00 52 1007.7
20260506032017 67 43 2.0 8.0 0.00 0.00 0.00 52 1007.6
20260506030957 67 41 3.0 6.0 0.00 0.00 0.00 52 1007.7
20260506025938 67 40 2.0 6.0 0.00 0.00 0.00 52 1007.7
20260506024926 67 46 2.0 6.0 0.00 0.00 0.00 53 1007.7
20260506023929 67 40 1.0 6.0 0.00 0.00 0.00 52 1007.9
20260506022926 67 45 1.0 5.0 0.00 0.00 0.00 52 1008.0
20260506021901 67 52 1.0 3.0 0.00 0.00 0.00 52 1008.0
20260506020857 67 51 0.0 2.0 0.00 0.00 0.00 52 1008.0
20260506014704 68 49 1.0 5.0 0.00 0.00 0.00 50 1007.9
20260506013721 68 45 1.0 5.0 0.00 0.00 0.00 50 1007.7
20260506012716 68 52 1.0 5.0 0.00 0.00 0.00 50 1007.6
20260506011730 69 51 1.0 5.0 0.00 0.00 0.00 49 1007.7
20260506010738 69 58 1.0 4.0 0.00 0.00 0.00 49 1007.7
20260506005801 69 49 2.0 6.0 0.00 0.00 0.00 49 1007.8
20260506004805 69 27 2.0 6.0 0.00 0.00 0.00 48 1007.9
20260506003827 69 46 2.0 6.0 0.00 0.00 0.00 48 1007.9
20260506001615 70 49 2.0 6.0 0.00 0.00 0.00 47 1007.8
20260506000548 70 40 1.0 5.0 0.00 0.00 0.00 47 1007.9
20260505235537 70 44 2.0 5.0 0.00 0.00 0.00 47 1007.8
20260505234542 70 45 3.0 7.0 0.00 0.00 0.00 46 1007.8
20260505233512 70 31 3.0 10.0 0.00 0.00 0.00 45 1007.9
20260505232444 71 39 3.0 10.0 0.00 0.00 0.00 45 1007.8
20260505231420 71 35 3.0 9.0 0.00 0.00 0.00 46 1007.8
20260505224215 71 51 4.0 14.0 0.00 0.00 0.00 48 1008.0
20260505223200 72 54 4.0 9.0 0.00 0.00 0.00 48 1007.9
20260505221011 72 90 3.0 12.0 0.00 0.00 0.00 49 1008.0
20260505215957 72 146 2.0 12.0 0.00 0.00 0.00 50 1008.1
20260505215003 72 51 4.0 10.0 0.00 0.00 0.00 51 1008.1
20260505213958 73 28 3.0 9.0 0.00 0.00 0.00 49 1008.0
20260505211907 73 86 4.0 13.0 0.00 0.00 0.00 49 1008.0
20260505210914 73 75 5.0 15.0 0.00 0.00 0.00 49 1008.0
20260505205856 73 84 6.0 15.0 0.00 0.00 0.00 49 1007.9
20260505204908 73 46 6.0 13.0 0.00 0.00 0.00 48 1008.0